Regional Weather Roundup
Issued by NWS

Home | Current Version | Previous Version | Text Only | Print | Product List | Glossary On
Versions: 1 2 3 4 5 6 7 8 9 10 11 12 13 14 15 16 17 18 19 20 21 22 23 24 25 26 27 28 29 30 31 32 33 34 35 36 37 38 39 40 41 42 43 44 45 46 47 48 49 50
000
ASUS43 KFSD 250610
RWRSD

WEATHER ROUNDUP FOR SOUTH DAKOTA
NATIONAL WEATHER SERVICE SIOUX FALLS SD
100 AM CDT FRI APR 25 2014

NOTE: "FAIR" INDICATES FEW OR NO CLOUDS BELOW 12,000 FEET WITH NO
SIGNIFICANT WEATHER AND/OR OBSTRUCTIONS TO VISIBILITY.


SDZ001>005-009-010-012>017-250700-
NORTHWEST AND NORTH CENTRAL SOUTH DAKOTA

CITY           SKY/WX    TMP DP  RH WIND       PRES   REMARKS
BUFFALO          N/A     45  30  55 SW6       29.73S
FAITH            N/A     51  26  37 W3        29.79R
MOBRIDGE       CLOUDY    47  29  49 S7        29.74S
$$

SDZ012>016-024>037-041>051-057-063-072>074-250700-
SOUTHWEST AND SOUTH CENTRAL SOUTH DAKOTA

CITY           SKY/WX    TMP DP  RH WIND       PRES   REMARKS
RAPID CTY ARPT CLOUDY    41  28  60 NW5       29.81S
PIERRE         CLOUDY    49  25  39 W6        29.76R
CUSTER         CLOUDY    41  23  48 N3        29.84S
ELLSWORTH AFB  CLOUDY    46  29  51 W6        29.81S
PHILIP         MOCLDY    44  33  65 W6        29.79R
PINE RIDGE     CLOUDY    52  27  38 E10       29.79F
WINNER         FAIR      49  26  41 S7        29.79F
$$

SDZ004>011-016>023-039-040-250700-
NORTHEAST SOUTH DAKOTA

CITY           SKY/WX    TMP DP  RH WIND       PRES   REMARKS
ABERDEEN       MOCLDY    39  32  76 NW3       29.76S
WATERTOWN      FAIR      39  38  96 S5        29.75R
SISSETON         N/A     40  37  89 NW5       29.71S
$$

SDZ017-020-022-023-036>040-048>070-250700-
SOUTHEAST SOUTH DAKOTA

CITY           SKY/WX    TMP DP  RH WIND       PRES   REMARKS
SIOUX FALLS    FAIR      40  32  73 CALM      29.77S
HURON          CLOUDY    41  25  53 W6        29.76R
CHAMBERLAIN      N/A     45  26  47 SW6       29.78S
MITCHELL       MOCLDY    47  24  40 W6        29.77F
YANKTON        FAIR      48  25  40 W5        29.79S
$$

ABBREVIATIONS USED IN REMARKS
   TC - TEMPERATURE IN CELSIUS
  WCI - WIND CHILL INDEX
   HX - HEAT INDEX
  VSB - VISIBILITY




USA.gov is the U.S. government's official web portal to all federal, state and local government web resources and services.